Regional Weather Roundup
Issued by NWS Midland/Odessa, TX

Home | Current Version | Previous Version | Text Only | Print | Product List | Glossary On
Versions: 1 2 3 4 5 6 7 8 9 10 11 12 13 14 15 16 17 18 19 20 21 22 23 24 25 26 27 28 29 30 31 32 33 34 35 36 37 38 39 40 41 42 43 44 45 46 47 48 49 50
000
ASUS44 KMAF 231310
RWRMAF
MIDLAND AREA WEATHER ROUNDUP
NATIONAL WEATHER SERVICE MIDLAND TX
800 AM CDT SAT AUG 23 2014

...IN SOUTHWEST TEXAS AND SOUTHEAST NEW MEXICO...

CITY           SKY/WX    TMP DP  RH WIND       PRES   REMARKS
ALPINE         MOCLDY    65  57  76 CALM      30.19R
ANDREWS        CLOUDY    74  47  37 S7        30.05S
ARTESIA        NOT AVBL
BIG SPRING     MOCLDY    74  59  58 SE15      30.05S
CARLSBAD       MOCLDY    70  64  81 E3        30.03R
DRYDEN           N/A     76  57  51 E5        30.01R
FORT STOCKTON  CLOUDY    74  49  41 S9        30.04S
GUAD PASS      PTCLDY    63  59  87 SW14      30.18R
HOBBS          CLEAR     70  64  83 SW5       30.06F
MARFA          MOCLDY    63  61  94 CALM      30.18R
MIDLAND AIRPK  MOCLDY    74  55  50 S8        30.05R
MIDLAND INTL   MOCLDY    72  52  49 S9        30.04R
ODESSA         CLOUDY    75  50  41 S8        30.05R
PECOS          MOCLDY    70  67  89 CALM      30.02S
PRESIDIO       FAIR      72  65  79 CALM      30.03R
SEMINOLE       CLOUDY    70  63  76 CALM      30.06F
SNYDER         MOCLDY    73  60  64 S8        30.04R
WINK           CLOUDY    73  69  87 E6        30.01R
$$
...OTHER STATIONS IN TEXAS...

CITY           SKY/WX    TMP DP  RH WIND       PRES   REMARKS
ABILENE        PTCLDY    76  62  62 S10       30.02S
AMARILLO       MOCLDY    71  57  61 S12       30.01S
AUSTIN         MOSUNNY   75  73  93 SW3       30.02S
BROWNSVILLE    MOSUNNY   78  76  93 E5        29.97R
CORPUS CHRISTI MOSUNNY   78  76  93 SE3       29.99R
DALLAS FTW     SUNNY     80  67  64 S8        29.99R
DEL RIO        CLEAR     75  67  76 E6        29.99R
EL PASO        PTCLDY    67  60  78 S6        30.09R
HOUSTON INT    MOSUNNY   78  77  96 CALM      30.02R
LUBBOCK        CLOUDY    74  49  41 S14       30.04S
SAN ANGELO     PTCLDY    72  64  76 S6        30.03R
SAN ANTONIO    PTSUNNY   79  73  82 S8        30.03R
WACO           SUNNY     77  72  84 S10       30.02R
WICHITA FALLS  NOT AVBL
$$
...OTHER LOCATIONS IN NEW MEXICO...

CITY           SKY/WX    TMP DP  RH WIND       PRES   REMARKS
ALAMAGORDO     PTCLDY    59  59 100 E7        30.12R
ALBUQUERQUE    PTCLDY    59  55  87 NE5       30.18R
CANNON AFB     MOCLDY    64 N/A N/A SW5       30.08S
CLOVIS           N/A     63  59  88 S7        30.10S
HOLLOMAN AFB   PTCLDY    63  61  94 E1        30.10R
ROSWELL        CLEAR     65  60  84 NW8       30.04S
RUIDOSO        CLEAR     55  50  82 W9        30.26R
SANTA FE       CLEAR     50  49  96 CALM      30.21R
TRUTH OR CONSE CLEAR     61  56  83 W6        30.14R
TUCUMCARI      PTCLDY    66  57  72 SW8       30.03S
$$


USA.gov is the U.S. government's official web portal to all federal, state and local government web resources and services.